EN

Hourly Weather Luka

Today, 3 December, Thursday

Time Temperature Precipitation Wind Pressure Humidity
00:00 -2°C° 0 mm 2 mps 749 mmHg 94%
01:00 -2°C° 0 mm 2 mps 749 mmHg 94%
02:00 -1°C° 0 mm 1 mps 750 mmHg 96%
03:00 -4°C° 0 mm 2 mps 749 mmHg 96%
04:00 -4°C° 0 mm 2 mps 749 mmHg 96%
05:00 -4°C° 0 mm 2 mps 749 mmHg 96%
06:00 -4°C° 0 mm 2 mps 749 mmHg 96%
07:00 -3°C° 0 mm 2 mps 749 mmHg 95%
08:00 -3°C° 0 mm 2 mps 749 mmHg 94%
09:00 -2°C° 0 mm 2 mps 749 mmHg 93%
10:00 -1°C° 0 mm 2 mps 749 mmHg 92%
11:00 -1°C° 0 mm 2 mps 749 mmHg 91%
12:00 0°C° 0 mm 3 mps 748 mmHg 91%
13:00 0°C° 0 mm 3 mps 748 mmHg 91%
14:00 0°C° 0 mm 3 mps 748 mmHg 91%
15:00 0°C° 0 mm 3 mps 748 mmHg 92%
16:00 0°C° 0 mm 3 mps 747 mmHg 93%
17:00 -2°C° 0 mm 4 mps 747 mmHg 95%
18:00 -1°C° 0 mm 4 mps 747 mmHg 95%
19:00 -1°C° 0 mm 4 mps 747 mmHg 95%
20:00 -1°C° 0 mm 4 mps 747 mmHg 95%
21:00 -1°C° 0 mm 4 mps 747 mmHg 95%
22:00 -1°C° 0 mm 4 mps 747 mmHg 95%
23:00 -1°C° 0 mm 4 mps 747 mmHg 94%

Tomorrow, 4 December, Friday

Time Temperature Precipitation Wind Pressure Humidity
00:00 -1°C° 0 mm 4 mps 747 mmHg 94%
01:00 -1°C° 0 mm 5 mps 746 mmHg 94%
02:00 -1°C° 0 mm 5 mps 746 mmHg 94%
03:00 -1°C° 0 mm 5 mps 746 mmHg 94%
04:00 -1°C° 0 mm 5 mps 746 mmHg 94%
05:00 0°C° 0 mm 5 mps 746 mmHg 94%
06:00 0°C° 0 mm 5 mps 746 mmHg 94%
07:00 0°C° 0 mm 5 mps 746 mmHg 95%
08:00 0°C° 0 mm 5 mps 746 mmHg 95%
09:00 0°C° 0 mm 5 mps 746 mmHg 94%
10:00 +1°C° 0 mm 6 mps 746 mmHg 93%
11:00 +1°C° 0 mm 6 mps 746 mmHg 93%
12:00 +1°C° 0 mm 6 mps 746 mmHg 92%
13:00 +1°C° 0 mm 6 mps 746 mmHg 91%
14:00 +1°C° 0 mm 5 mps 746 mmHg 89%
15:00 +1°C° 0 mm 6 mps 746 mmHg 90%
16:00 +1°C° 0 mm 6 mps 746 mmHg 91%
17:00 -1°C° 0 mm 6 mps 746 mmHg 91%
18:00 -1°C° 0 mm 6 mps 746 mmHg 91%
19:00 -1°C° 0 mm 6 mps 747 mmHg 92%
20:00 -1°C° 0 mm 7 mps 747 mmHg 92%
21:00 -1°C° 0 mm 6 mps 747 mmHg 91%
22:00 -1°C° 0 mm 6 mps 747 mmHg 90%
23:00 +1°C° 0 mm 6 mps 748 mmHg 88%

Day after tomorrow, 5 December, Saturday

Time Temperature Precipitation Wind Pressure Humidity
00:00 -1°C° 0 mm 6 mps 748 mmHg 89%
01:00 -1°C° 0 mm 6 mps 748 mmHg 90%
02:00 -1°C° 0 mm 6 mps 748 mmHg 90%
03:00 -1°C° 0 mm 6 mps 748 mmHg 91%
04:00 -1°C° 0 mm 6 mps 748 mmHg 91%
05:00 -1°C° 0 mm 6 mps 748 mmHg 92%
06:00 -1°C° 0 mm 6 mps 748 mmHg 92%
07:00 -2°C° 0 mm 6 mps 749 mmHg 93%
08:00 -2°C° 0 mm 6 mps 749 mmHg 93%
09:00 -2°C° 0 mm 6 mps 749 mmHg 92%
10:00 -1°C° 0 mm 6 mps 749 mmHg 91%
11:00 -1°C° 0 mm 6 mps 749 mmHg 89%
12:00 -1°C° 0 mm 6 mps 750 mmHg 87%
13:00 -1°C° 0 mm 6 mps 750 mmHg 84%
14:00 +1°C° 0 mm 5 mps 750 mmHg 81%
15:00 0°C° 0 mm 5 mps 750 mmHg 83%
16:00 -1°C° 0 mm 5 mps 750 mmHg 84%
17:00 -1°C° 0 mm 4 mps 750 mmHg 86%
18:00 -2°C° 0 mm 5 mps 750 mmHg 85%
19:00 -2°C° 0 mm 5 mps 750 mmHg 85%
20:00 -2°C° 0 mm 5 mps 751 mmHg 85%
21:00 -2°C° 0 mm 5 mps 751 mmHg 84%
22:00 -4°C° 0 mm 5 mps 751 mmHg 84%
23:00 -4°C° 0 mm 5 mps 751 mmHg 84%

6 December, Sunday

Time Temperature Precipitation Wind Pressure Humidity
00:00 -4°C° 0 mm 5 mps 751 mmHg 83%
01:00 -4°C° 0 mm 5 mps 752 mmHg 81%
02:00 -4°C° 0 mm 5 mps 752 mmHg 80%
03:00 -4°C° 0 mm 5 mps 752 mmHg 76%
04:00 -5°C° 0 mm 5 mps 752 mmHg 71%
05:00 -5°C° 0 mm 5 mps 752 mmHg 67%
06:00 -5°C° 0 mm 5 mps 752 mmHg 63%
07:00 -6°C° 0 mm 5 mps 752 mmHg 60%
08:00 -6°C° 0 mm 5 mps 752 mmHg 57%
09:00 -5°C° 0 mm 5 mps 752 mmHg 52%
10:00 -4°C° 0 mm 5 mps 753 mmHg 47%
11:00 -3°C° 0 mm 6 mps 753 mmHg 43%
12:00 -3°C° 0 mm 6 mps 752 mmHg 42%
13:00 -2°C° 0 mm 6 mps 752 mmHg 42%
14:00 -2°C° 0 mm 6 mps 752 mmHg 42%
15:00 -3°C° 0 mm 6 mps 752 mmHg 46%
16:00 -4°C° 0 mm 5 mps 752 mmHg 50%
17:00 -5°C° 0 mm 5 mps 752 mmHg 54%
18:00 -5°C° 0 mm 5 mps 752 mmHg 54%
19:00 -6°C° 0 mm 5 mps 752 mmHg 54%
20:00 -6°C° 0 mm 5 mps 753 mmHg 54%
21:00 -6°C° 0 mm 5 mps 753 mmHg 55%
22:00 -6°C° 0 mm 5 mps 753 mmHg 55%
23:00 -7°C° 0 mm 5 mps 753 mmHg 55%

7 December, Monday

Time Temperature Precipitation Wind Pressure Humidity
00:00 -7°C° 0 mm 5 mps 753 mmHg 57%
01:00 -7°C° 0 mm 5 mps 752 mmHg 59%
02:00 -7°C° 0 mm 5 mps 752 mmHg 61%
03:00 -7°C° 0 mm 5 mps 752 mmHg 63%
04:00 -7°C° 0 mm 5 mps 752 mmHg 65%
05:00 -8°C° 0 mm 5 mps 752 mmHg 67%
06:00 -8°C° 0 mm 5 mps 752 mmHg 66%
07:00 -8°C° 0 mm 5 mps 752 mmHg 66%
08:00 -8°C° 0 mm 5 mps 752 mmHg 66%
09:00 -9°C° 0 mm 6 mps 752 mmHg 61%
10:00 -8°C° 0 mm 6 mps 752 mmHg 57%
11:00 -6°C° 0 mm 6 mps 752 mmHg 52%
12:00 -6°C° 0 mm 6 mps 752 mmHg 52%
13:00 -5°C° 0 mm 6 mps 752 mmHg 52%
14:00 -5°C° 0 mm 6 mps 751 mmHg 52%
15:00 -5°C° 0 mm 6 mps 751 mmHg 55%
16:00 -6°C° 0 mm 6 mps 751 mmHg 58%
17:00 -8°C° 0 mm 6 mps 751 mmHg 61%
18:00 -6°C° 0 mm 6 mps 751 mmHg 59%
19:00 -6°C° 0 mm 6 mps 751 mmHg 57%
20:00 -6°C° 0 mm 6 mps 751 mmHg 56%
21:00 -6°C° 0 mm 6 mps 751 mmHg 55%
22:00 -7°C° 0 mm 7 mps 751 mmHg 55%
23:00 -7°C° 0 mm 7 mps 751 mmHg 55%

8 December, Tuesday

Time Temperature Precipitation Wind Pressure Humidity
00:00 -6°C° 0 mm 6 mps 751 mmHg 58%
01:00 -8°C° 0 mm 6 mps 751 mmHg 60%
02:00 -8°C° 0 mm 6 mps 751 mmHg 63%
03:00 -8°C° 0 mm 6 mps 750 mmHg 63%
04:00 -9°C° 0 mm 6 mps 750 mmHg 64%
05:00 -9°C° 0 mm 6 mps 750 mmHg 65%
06:00 -9°C° 0 mm 6 mps 750 mmHg 64%
07:00 -9°C° 0 mm 6 mps 750 mmHg 64%
08:00 -9°C° 0 mm 6 mps 750 mmHg 63%
09:00 -8°C° 0 mm 6 mps 750 mmHg 58%
10:00 -7°C° 0 mm 7 mps 749 mmHg 53%
11:00 -7°C° 0 mm 7 mps 749 mmHg 48%
12:00 -6°C° 0 mm 7 mps 749 mmHg 48%
13:00 -6°C° 0 mm 7 mps 748 mmHg 48%
14:00 -6°C° 0 mm 7 mps 748 mmHg 48%
15:00 -6°C° 0 mm 7 mps 748 mmHg 51%
16:00 -6°C° 0 mm 6 mps 748 mmHg 54%
17:00 -8°C° 0 mm 6 mps 747 mmHg 57%
18:00 -8°C° 0 mm 6 mps 747 mmHg 58%
19:00 -8°C° 0 mm 6 mps 747 mmHg 60%
20:00 -8°C° 0 mm 6 mps 747 mmHg 62%
21:00 -8°C° 0 mm 6 mps 746 mmHg 65%
22:00 -9°C° 0 mm 6 mps 746 mmHg 68%
23:00 -9°C° 0 mm 6 mps 746 mmHg 70%
Show more